This is the latest recevied weather packets stored in our database for station/object NO4D. If no packets are shown the sender has not sent any weather packets the latest 10 day(s).
| Time | Temp. | Humidity | Pressure | Rain* | Wind** | Luminosity | Snow |
|---|---|---|---|---|---|---|---|
| 1778092633 | 23.33° C | 74% | 1014.1 hPa | 0 mm | - | 385 W/m² | - |
| 1778092329 | 23.89° C | 76% | 1013.9 hPa | 0 mm | - | 583 W/m² | - |
| 1778092026 | 23.89° C | 76% | 1013.8 hPa | 0 mm | - | 534 W/m² | - |
| 1778091723 | 23.33° C | 75% | 1013.7 hPa | 0 mm | - | 448 W/m² | - |
| 1778091421 | 23.89° C | 75% | 1014 hPa | 0 mm | - | 528 W/m² | - |
| 1778091118 | 24.44° C | 74% | 1013.8 hPa | 0 mm | - | 491 W/m² | - |
| 1778090815 | 23.33° C | 76% | 1013.8 hPa | 0 mm | - | 986 W/m² | - |
| 1778090511 | 22.78° C | 78% | 1013.9 hPa | 0 mm | - | 874 W/m² | - |
| 1778090208 | 22.78° C | 78% | 1013.7 hPa | 0 mm | - | 410 W/m² | - |
| 1778089905 | 22.78° C | 80% | 1013.9 hPa | 0 mm | - | 455 W/m² | - |
| 1778089597 | 22.78° C | 82% | 1014.1 hPa | 0 mm | - | 531 W/m² | - |
| 1778089293 | 22.22° C | 82% | 1014.2 hPa | 0 mm | - | 546 W/m² | - |
| 1778088991 | 22.22° C | 82% | 1014.1 hPa | 0 mm | - | 536 W/m² | - |
| 1778088688 | 22.22° C | 83% | 1014.1 hPa | 0 mm | - | 773 W/m² | - |
| 1778088385 | 21.67° C | 88% | 1014.3 hPa | 0 mm | - | 595 W/m² | - |
| 1778088081 | 21.11° C | 89% | 1014.6 hPa | 0 mm | - | 511 W/m² | - |
| 1778087779 | 21.11° C | 92% | 1015.4 hPa | 0 mm | - | 685 W/m² | - |
| 1778087477 | 20.56° C | 92% | 1015.4 hPa | 0 mm | - | 873 W/m² | - |
| 1778087174 | 20° C | 91% | 1015.3 hPa | 1.27 mm | - | 829 W/m² | - |
| 1778086871 | 19.44° C | 90% | 1015.8 hPa | 4.32 mm | - | 263 W/m² | - |
| 1778086570 | 20.56° C | 86% | 1015.8 hPa | 3.05 mm | - | 201 W/m² | - |
| 1778086265 | 21.11° C | 82% | 1016.4 hPa | 0 mm | - | 54 W/m² | - |
| 1778085963 | 21.11° C | 81% | 1015.9 hPa | 0 mm | - | 42 W/m² | - |
| 1778085660 | 21.11° C | 80% | 1015.8 hPa | 0 mm | - | 154 W/m² | - |
| 1778085355 | 21.11° C | 82% | 1015.9 hPa | 0 mm | - | 223 W/m² | - |
* Rain latest hour (hover to see other rain measurements)
** Current wind speed in m/s (hover to see current wind gust speed)